COSMOS 1275 DEB, 13462

Orbit data source: Space-Track

COSMOS 1275 DEB, 13462 is space debris in LEO originally from a launch on Thu, 04 Jun 1981 UTC launched from the Plesetsk Missile And Space Complex (PKMTR). Debris objects in space refer to the collection of defunct objects orbiting the Earth. Examples of debris include non-operational satellites, rocket bodies, and fragments generated from explosions, collisions, or faulty payload assembly.

Loading next visibility...
Identifier
13462, 1981-053FJ
Orbit
LEO
Country
Flag of CISCIS
Related business
Manufacturer
Unknown
Mission
Spacecraft
Bus & Motor
Unknown
Mass
Unknown
Launch date (UTC)
1981-06-04 (45 years ago)
Launch vehicle
Unknown
Launch site
Plesetsk Missile And Space Complex (PKMTR)
Object type
Payload
Rocket body
Debris
Shape & HBR
Unknown shape, 0.1 m
Radar Cross Section
Medium (>0.1 m² and <1 m²)

Expand to show TLE details & history
Last TLE update: 12 hours ago

TLE from 12 hours ago
0 COSMOS 1275 DEB
1 13462U 81053FJ  26255.23173407  .00000439  00000-0  42092-3 0  9996
2 13462  82.8166 340.5516 0162533 323.6835  63.6866 13.72822048199329
Epoch: 2026-09-12T05:33Z
TLE epoch observation values (Epoch: 2026-09-12T05:33:41.823Z)
Latitude
28.85067°
Longitude
-90.15576°
Altitude
941.508 km
Speed
7.409 km/s
True Right ascension
22h 58m 02s
True Declination
28° 42' 33"
Sunlit
Object was in full shadow at epoch
Visualization orbit readout
Latitude
Unknown
Longitude
Unknown
Altitude
Unknown
Speed
Unknown
Apparent Right ascension
Unknown
Apparent Declination
Unknown
Sunlit
N/A
Visualization observer readout
Local Sidereal Time
10:10:43
Azimuth
Unknown
Elevation
Unknown
Doppler factor
Unknown
Orbital elements
Apogee altitude
1,106.314 km
Perigee altitude
866.911 km
Semi-major axis
7,364.749 km
Eccentricity
0.01625
Inclination
82.8166°
RAAN
340.5516°
Arg. of periapsis
323.6835°
True anomaly
65.37103°
Mean anomaly
63.6866°
Eccentric anomaly
64.52732°
Mean motion
3.43405 °/min
Orbital period
104.83 mins
BSTAR
0.00042092
Loading maneuver chart data...
Computing Atmospheric mass density...

Documentation

Showing up to 5 results
|